Zurück zum Katalog

STARLINK-30397

AktivKommunikationVLEO
NORAD 57771·PAYLOAD·🇺🇸 United States

Gestartet Sep 4, 2023 von Cape Canaveral Space Force Station

Loading…

Nächste Überflüge (nächste 24 Stunden)

TLE

AktuellSource: CelesTrak SupGP

Epoche: Sep 14, 2026, 21:22 UTC

1 57771C 23134A   26257.89076389  .00016611  00000+0  60165-3 0  2574
2 57771  43.0026 206.2039 0001318 264.2633 329.0221 15.27570427    15

Verfolge STARLINK-30397 in Echtzeit mit AllMySat

Download on the App Store